Volver al catálogo

STARLINK-30246

ActivoComunicacionesVLEO
NORAD 57615·PAYLOAD·🇺🇸 United States

Lanzado Aug 11, 2023 desde Cape Canaveral Space Force Station

Loading…

Próximos Pases (próximas 24 horas)

TLE

ActualizadoSource: CelesTrak SupGP

Época: Sep 15, 2026, 03:09 UTC

1 57615C 23119P   26258.13173611  .00010213  00000+0  31708-3 0  2582
2 57615  42.9991  90.2495 0008517 265.4053 170.5581 15.32511348    16

Sigue STARLINK-30246 en tiempo real con AllMySat

Download on the App Store